Wind_Speed
36 36 34 35 36 36 36 35 34 34 34 33 31 30 30 29 27 26 25 26 26 25 24 23 23 23 23 23 23 23 23 24 24 25 26 27 28 29 30 31 32 33 34 34
37 35 34 37 37 36 36 36 35 35 36 34 32 30 30 30 28 26 25 25 25 24 24 23 23 23 23 23 23 23 23 23 24 26 27 28 29 30 32 33 34 34 35 35
35 33 35 37 36 36 35 35 35 36 36 36 34 30 29 29 29 27 25 26 25 25 24 24 23 23 23 23 23 23 23 24 25 27 29 30 31 32 34 34 35 35 36 36
37 34 36 36 36 35 34 34 35 37 38 36 35 32 27 29 28 27 26 25 25 24 24 23 23 23 23 23 23 24 25 26 27 28 30 31 33 34 35 36 36 37 38 39
36 34 35 35 35 36 35 35 36 38 38 37 34 36 27 28 28 27 26 25 25 24 24 23 23 23 23 24 24 25 26 27 29 30 32 33 34 35 36 37 38 39 40 40
35 35 36 35 35 36 36 35 36 37 38 37 33 36 29 26 27 27 26 24 24 24 23 23 23 23 24 25 26 27 28 29 31 32 33 35 36 37 38 39 40 41 41 42
33 34 35 35 35 36 36 35 36 37 37 35 33 35 29 25 26 27 25 24 23 23 23 23 23 24 25 26 27 28 29 31 32 33 35 36 37 39 40 41 42 42 43 43
33 33 33 34 33 34 35 36 36 36 36 33 32 33 28 25 25 26 25 23 22 23 23 23 24 25 26 27 28 29 31 33 34 35 36 38 39 40 42 42 43 44 44 45
32 32 32 33 32 34 34 34 33 35 36 35 34 32 28 25 24 25 24 23 23 23 23 24 25 26 27 28 29 31 33 34 36 37 38 40 41 42 43 44 44 45 46 48
32 32 32 33 33 34 34 33 34 36 36 35 33 30 28 24 23 23 24 24 23 23 24 25 26 27 29 30 31 32 34 36 37 39 40 41 43 44 44 46 47 48 49 50
31 32 32 33 33 32 33 33 34 35 37 35 33 28 26 25 24 23 23 24 24 24 25 26 28 29 30 31 33 34 36 38 39 41 42 43 44 45 46 47 49 50 50 51
30 32 32 31 31 33 34 33 33 34 34 33 32 28 25 26 25 25 24 24 25 25 26 28 29 30 32 33 35 36 38 40 41 43 44 45 46 47 48 49 50 51 52 53
30 33 32 32 32 32 32 31 32 33 34 33 31 27 25 26 27 27 27 26 26 27 28 29 30 32 34 35 37 39 40 42 43 45 46 47 48 49 50 51 52 53 54 55
30 31 30 28 27 28 30 30 31 33 33 31 29 26 25 26 28 28 28 28 28 28 30 31 33 34 36 37 39 40 42 43 45 46 47 48 49 50 51 52 53 54 55 56
30 30 28 27 28 30 29 29 30 31 30 30 28 27 25 27 29 30 30 30 30 31 32 34 35 36 37 39 41 42 44 45 47 48 49 50 51 52 53 54 54 56 57 58
31 30 29 29 28 30 30 30 30 31 30 30 30 27 25 30 31 31 31 32 32 34 35 36 37 38 40 41 43 44 45 47 48 49 50 51 52 53 53 54 56 56 57 58
31 31 30 30 29 31 32 29 29 30 30 30 30 27 28 30 31 32 33 33 35 36 37 38 39 40 42 43 44 46 47 49 49 50 51 52 53 53 54 56 56 57 58 59
33 32 32 32 32 35 28 26 28 29 29 29 29 28 29 31 32 33 34 35 36 37 38 39 40 42 43 44 46 47 49 50 51 51 52 53 53 54 55 56 57 58 60 61
33 33 34 33 34 34 31 28 28 29 28 28 30 30 32 33 33 34 35 36 37 38 40 41 42 43 45 46 47 48 49 50 51 52 52 53 54 55 56 57 58 59 61 62
33 33 34 34 34 33 29 28 30 31 29 27 30 32 33 34 35 35 36 37 39 40 41 42 44 45 46 47 48 49 50 50 51 51 52 53 54 56 57 58 59 61 62 63
33 33 33 33 34 32 29 29 30 31 28 28 31 33 34 35 36 36 37 39 40 41 43 44 44 45 46 47 48 48 49 50 50 51 52 54 55 57 58 59 60 62 64 66
33 34 34 34 35 30 28 30 31 30 31 32 33 34 35 36 36 37 38 40 41 42 43 44 45 45 46 46 47 48 49 50 51 52 53 54 56 57 59 60 62 64 66 68
34 33 33 33 32 31 32 32 32 32 33 34 35 36 36 37 37 38 39 40 41 42 43 43 44 45 45 46 47 48 49 50 51 53 54 55 57 58 60 62 64 66 69 72
33 33 34 34 33 33 33 33 34 34 35 36 36 37 37 38 38 39 39 40 41 41 42 43 43 44 45 46 48 49 50 51 52 53 55 56 58 60 62 64 67 70 73 76
34 34 34 34 33 33 34 34 35 36 37 37 37 38 38 39 39 40 40 41 41 42 43 43 44 45 47 48 49 50 51 52 53 55 56 58 60 62 65 67 70 73 76 80
34 33 33 32 32 34 34 35 36 37 37 38 38 38 39 39 40 41 41 42 42 43 44 45 46 46 47 48 49 51 52 53 55 56 58 61 63 66 68 71 73 76 79 82
Wind_Direction
244 245 246 247 248 249 251 252 253 255 256 257 258 261 264 266 266 264 264 266 268 268 268 268 268 269 271 272 274 276 279 281 283 285 286 287 288 289 291 291 291 291 290 289
244 246 246 247 249 250 251 252 254 255 258 258 258 258 261 264 264 263 263 264 265 266 266 266 266 267 268 270 272 275 277 280 283 285 287 288 288 290 291 292 292 291 290 289
246 245 246 247 248 250 252 253 254 255 257 259 259 257 259 261 262 262 261 262 262 263 263 263 263 264 265 268 271 274 277 281 283 286 288 289 290 292 292 292 292 292 290 289
245 245 246 248 249 251 253 253 253 254 256 258 260 259 257 261 262 262 261 261 261 260 259 260 260 262 264 267 271 274 278 282 285 287 289 291 292 292 293 293 293 293 292 290
245 245 247 247 248 250 251 252 253 254 255 257 260 263 257 259 261 261 260 259 260 259 259 259 260 262 265 268 272 275 279 283 286 288 290 291 293 293 293 293 293 293 292 291
244 245 246 246 247 249 250 250 253 254 256 257 258 262 260 258 259 260 260 259 259 259 258 259 260 263 266 269 273 277 280 284 287 289 291 292 293 293 293 294 293 293 292 291
245 246 246 245 247 248 249 249 251 254 255 258 257 259 262 259 258 258 259 258 257 257 258 259 262 265 268 271 275 278 281 284 287 290 291 293 293 294 294 294 294 294 293 293
243 245 246 245 246 246 247 248 249 253 255 256 256 258 260 258 256 257 258 257 256 257 259 262 264 268 271 274 277 280 283 286 288 290 292 293 293 294 294 294 294 294 293 293
243 244 243 244 242 242 245 247 248 251 253 255 255 258 257 255 254 254 256 257 257 259 262 265 268 271 274 276 279 282 285 287 289 291 292 293 294 294 294 294 294 294 293 293
242 243 241 241 241 242 244 244 244 248 252 255 256 256 256 252 252 254 256 257 259 262 265 268 271 274 276 278 281 283 286 288 290 292 293 294 295 295 295 295 294 294 294 294
241 243 242 241 242 242 242 242 244 247 251 254 255 256 256 255 254 254 255 258 261 264 267 271 274 276 279 281 283 285 287 289 291 292 294 295 295 295 295 295 295 295 295 295
241 243 242 240 239 238 240 240 241 245 250 253 255 254 255 257 257 258 260 262 264 266 269 272 275 278 281 283 285 287 288 290 292 293 294 295 295 295 296 296 296 296 296 295
240 242 242 240 239 241 242 243 244 246 249 250 252 254 254 257 259 262 264 266 268 269 272 275 278 280 282 284 286 288 289 291 292 294 295 295 296 296 297 297 297 296 296 297
241 243 244 245 246 244 243 242 243 245 247 249 252 254 255 257 260 263 265 267 270 273 276 279 281 282 284 286 288 289 291 292 293 294 295 296 296 297 297 297 297 297 297 298
241 243 243 241 241 241 240 240 241 244 247 249 250 252 255 259 261 263 266 269 272 276 279 281 283 285 286 288 289 290 292 293 294 295 295 297 297 297 297 297 297 298 298 299
241 241 241 240 242 242 240 238 240 244 247 251 252 252 255 258 262 266 269 272 275 278 281 283 285 287 288 289 290 291 293 294 295 295 296 297 297 297 298 298 298 299 299 300
240 239 240 241 243 246 244 243 244 246 249 252 255 256 256 260 265 269 273 275 278 280 283 285 286 287 288 290 291 292 293 294 295 296 296 297 297 298 298 298 299 300 301 302
238 239 241 242 244 248 253 250 250 251 252 255 258 259 261 264 267 271 274 277 279 281 284 286 287 289 290 291 292 293 293 294 295 296 296 297 297 298 299 299 300 301 302 303
239 240 242 244 247 252 252 253 253 254 254 258 261 263 264 267 269 272 275 277 280 282 285 287 288 290 291 292 293 293 294 295 295 296 297 297 298 299 299 300 301 302 303 303
238 241 243 246 250 254 255 254 255 259 261 261 263 265 267 270 272 274 277 279 281 284 286 288 289 290 291 292 293 293 294 295 296 297 298 298 299 300 300 301 302 303 303 304
240 243 245 249 253 255 257 259 260 262 265 263 263 266 269 272 274 276 278 280 282 284 286 288 289 290 291 292 293 294 295 295 297 298 299 299 300 301 301 302 303 304 304 305
241 243 246 250 253 257 261 262 262 265 264 265 267 269 271 274 276 277 279 281 283 285 287 289 290 291 292 293 294 294 295 296 298 299 300 300 301 302 302 303 304 305 305 306
241 244 248 250 254 258 258 261 263 265 267 268 270 272 274 276 277 280 282 283 285 287 288 290 291 293 293 294 295 296 297 298 299 300 301 301 302 303 303 304 305 305 306 307
240 242 246 249 252 256 259 261 263 266 268 270 272 274 276 278 280 282 283 285 287 289 290 291 293 294 294 295 296 297 299 300 301 301 301 302 303 303 304 305 306 306 307 308
241 243 247 250 252 255 258 261 264 266 269 272 274 277 279 281 283 284 286 288 289 290 291 293 294 295 296 297 298 299 300 301 301 302 302 303 303 304 305 306 307 308 308 309
242 246 249 252 253 255 258 260 264 267 269 272 275 278 281 283 285 286 288 289 290 291 293 294 295 296 297 298 299 300 301 302 302 303 303 304 304 305 306 307 307 309 309 310
Height
5803 5807 5810 5812 5813 5815 5816 5818 5820 5820 5820 5822 5823 5824 5823 5822 5823 5823 5822 5821 5821 5820 5820 5819 5818 5818 5817 5817 5816 5815 5814 5813 5811 5810 5808 5806 5804 5801 5799 5796 5793 5791 5788 5785
5796 5800 5803 5803 5805 5807 5809 5811 5813 5813 5813 5815 5816 5817 5816 5816 5816 5817 5817 5816 5815 5814 5814 5813 5813 5812 5812 5811 5810 5809 5808 5807 5805 5804 5802 5800 5797 5795 5792 5789 5786 5783 5780 5777
5788 5794 5794 5795 5798 5800 5802 5804 5805 5805 5805 5806 5808 5811 5811 5810 5810 5810 5810 5809 5809 5808 5808 5807 5807 5806 5806 5805 5804 5804 5802 5801 5799 5797 5795 5793 5790 5787 5785 5782 5778 5775 5772 5769
5780 5784 5786 5788 5791 5792 5795 5796 5797 5797 5798 5799 5800 5802 5805 5803 5803 5803 5803 5803 5802 5802 5801 5801 5801 5800 5800 5799 5798 5797 5796 5794 5792 5790 5788 5785 5783 5780 5777 5774 5770 5767 5763 5760
5773 5777 5778 5781 5784 5784 5787 5788 5789 5789 5790 5792 5793 5793 5799 5797 5796 5796 5796 5796 5796 5795 5795 5795 5794 5794 5794 5793 5792 5791 5789 5788 5785 5783 5780 5778 5775 5772 5769 5765 5762 5758 5755 5751
5765 5768 5770 5773 5776 5777 5778 5780 5781 5781 5782 5785 5788 5785 5790 5791 5790 5789 5790 5790 5789 5789 5789 5788 5788 5788 5787 5786 5785 5784 5782 5780 5778 5775 5773 5770 5766 5763 5760 5756 5753 5749 5745 5742
5757 5760 5762 5765 5767 5769 5771 5773 5773 5774 5774 5777 5779 5778 5783 5784 5783 5783 5783 5783 5783 5782 5782 5782 5782 5781 5781 5780 5778 5777 5775 5772 5770 5767 5764 5761 5758 5754 5751 5747 5743 5739 5735 5732
5748 5752 5755 5758 5760 5762 5763 5765 5767 5768 5768 5770 5771 5772 5777 5777 5776 5776 5777 5777 5777 5776 5776 5776 5775 5775 5774 5772 5771 5769 5767 5764 5761 5758 5755 5752 5748 5745 5741 5737 5733 5729 5725 5721
5741 5744 5747 5749 5752 5753 5755 5757 5760 5760 5760 5762 5764 5766 5769 5770 5770 5770 5770 5770 5770 5770 5770 5769 5768 5768 5766 5765 5763 5761 5758 5756 5753 5749 5746 5742 5739 5735 5731 5727 5723 5719 5714 5710
5733 5736 5739 5741 5743 5745 5748 5750 5751 5751 5752 5754 5757 5760 5762 5763 5764 5764 5764 5764 5764 5764 5763 5762 5761 5760 5759 5757 5755 5752 5750 5747 5743 5740 5736 5733 5729 5725 5720 5716 5712 5708 5703 5698
5725 5728 5731 5734 5737 5740 5741 5743 5744 5745 5746 5748 5749 5755 5755 5756 5757 5757 5757 5757 5757 5757 5756 5755 5754 5752 5750 5748 5746 5743 5740 5737 5734 5730 5726 5722 5718 5714 5709 5705 5700 5696 5691 5686
5718 5720 5723 5727 5730 5731 5732 5735 5737 5739 5740 5741 5743 5749 5748 5748 5748 5749 5750 5750 5750 5750 5749 5747 5746 5744 5742 5740 5737 5734 5731 5727 5724 5720 5716 5711 5707 5703 5698 5693 5688 5683 5678 5673
5711 5713 5716 5719 5723 5725 5726 5729 5731 5732 5733 5733 5735 5742 5741 5741 5741 5741 5742 5742 5742 5741 5741 5739 5737 5735 5733 5730 5727 5724 5721 5717 5713 5709 5705 5700 5696 5691 5686 5681 5676 5671 5665 5660
5705 5707 5711 5714 5717 5718 5720 5722 5723 5724 5725 5727 5730 5733 5734 5733 5733 5733 5733 5733 5733 5733 5731 5730 5728 5726 5724 5721 5718 5714 5710 5707 5702 5698 5693 5689 5684 5679 5674 5668 5663 5657 5652 5646
5698 5701 5703 5706 5708 5710 5713 5715 5716 5717 5719 5721 5724 5724 5726 5725 5725 5725 5725 5725 5725 5724 5722 5721 5719 5716 5713 5710 5707 5703 5700 5696 5691 5687 5682 5677 5672 5666 5661 5655 5650 5644 5638 5632
5691 5694 5697 5699 5701 5703 5705 5707 5709 5711 5712 5713 5715 5718 5719 5717 5717 5717 5717 5716 5716 5714 5713 5711 5709 5706 5703 5700 5696 5693 5689 5684 5680 5675 5670 5664 5659 5654 5648 5642 5636 5630 5624 5618
5684 5688 5690 5693 5694 5695 5697 5702 5703 5704 5706 5707 5707 5711 5710 5709 5709 5708 5708 5707 5706 5705 5703 5701 5698 5696 5692 5689 5685 5681 5677 5672 5667 5663 5657 5652 5646 5641 5635 5629 5623 5616 5610 5603
5678 5680 5683 5685 5688 5687 5695 5695 5696 5697 5699 5699 5700 5702 5702 5702 5701 5700 5699 5698 5697 5695 5693 5690 5688 5685 5681 5678 5674 5670 5665 5660 5655 5650 5645 5639 5633 5628 5621 5615 5609 5602 5596 5589
5671 5673 5676 5678 5679 5681 5686 5688 5689 5689 5691 5693 5692 5693 5693 5692 5692 5692 5690 5688 5687 5685 5682 5680 5677 5673 5670 5666 5662 5657 5653 5648 5643 5637 5632 5626 5620 5614 5608 5601 5595 5588 5581 5574
5663 5666 5669 5670 5671 5673 5680 5682 5681 5682 5683 5686 5684 5684 5684 5683 5683 5683 5681 5679 5676 5674 5671 5668 5665 5662 5658 5654 5650 5645 5640 5635 5630 5625 5619 5613 5606 5600 5594 5587 5580 5573 5566 5558
5656 5658 5660 5662 5664 5666 5672 5673 5673 5675 5678 5677 5675 5675 5675 5674 5674 5673 5670 5668 5666 5663 5660 5657 5654 5650 5646 5642 5637 5633 5628 5623 5617 5612 5606 5599 5593 5586 5580 5573 5566 5558 5550 5543
5648 5650 5653 5655 5656 5662 5665 5664 5665 5666 5666 5666 5666 5666 5665 5665 5663 5662 5660 5657 5655 5652 5649 5645 5642 5638 5634 5629 5625 5620 5615 5610 5605 5599 5592 5586 5579 5572 5565 5558 5550 5542 5533 5525
5640 5644 5646 5648 5651 5654 5654 5655 5656 5656 5656 5656 5656 5656 5655 5654 5653 5651 5649 5646 5643 5640 5637 5633 5629 5625 5621 5617 5612 5607 5602 5597 5591 5585 5578 5572 5565 5558 5550 5542 5534 5526 5516 5507
5632 5635 5636 5639 5642 5644 5645 5645 5646 5646 5646 5646 5646 5645 5644 5643 5642 5640 5637 5635 5632 5628 5625 5621 5617 5613 5609 5604 5599 5594 5589 5583 5578 5571 5565 5558 5551 5543 5535 5526 5517 5508 5498 5488
5623 5626 5628 5630 5633 5634 5635 5636 5636 5636 5636 5636 5635 5634 5633 5632 5630 5628 5625 5623 5620 5616 5613 5609 5605 5601 5596 5591 5586 5581 5575 5570 5564 5557 5550 5543 5536 5528 5520 5511 5501 5490 5480 5466
5615 5618 5621 5623 5625 5625 5626 5627 5626 5626 5626 5626 5625 5624 5622 5620 5618 5616 5613 5611 5607 5604 5600 5597 5592 5588 5583 5578 5573 5567 5561 5556 5549 5543 5536 5528 5520 5512 5503 5494 5486 5474 5461 5449